Regional Weather Roundup
Issued by NWS Cleveland, OH

Home | Current Version | Previous Version | Text Only | Print | Product List | Glossary Off
Versions: 1 2 3 4 5 6 7 8 9 10 11 12 13 14 15 16 17 18 19 20 21 22 23 24 25 26 27 28 29 30 31 32 33 34 35 36 37 38 39 40 41 42 43 44 45 46 47 48 49 50

000
ASUS41 KCLE 231110
RWRCLE
OHIO REGIONAL WEATHER ROUNDUP
NATIONAL WEATHER SERVICE WILMINGTON, OH
700 AM EDT SUN JUL 23 2017

NOTE: "FAIR" INDICATES FEW OR NO CLOUDS BELOW 12,000 FEET WITH NO
SIGNIFICANT WEATHER AND/OR OBSTRUCTIONS TO VISIBILITY.

OHZ001>008-015>018-024>027-034-035-043-044-231200-
   NORTHWEST OHIO

CITY           SKY/WX    TMP DP  RH WIND       PRES   REMARKS
DEFIANCE       FAIR     N/A N/A N/A CALM      29.80S HAZE
FINDLAY        FAIR      69  66  90 W3        29.79F
TOLEDO EXPRESS MOCLDY    68  68 100 NW5       29.80R
TOLEDO EXEC    FAIR      69  68  96 NW3       29.80S
LIMA           FAIR      68  68 100 N3        29.80F
$$

OHZ009>014-019>023-028>033-038-089-231200-
   NORTHEAST OHIO

CITY           SKY/WX    TMP DP  RH WIND       PRES   REMARKS
CLE-HOPKINS    MOCLDY    74  71  91 CALM      29.79S
CLE-LAKEFRONT  CLOUDY    76  72  87 W7        29.76R
CUY CO. ARPT   MOCLDY    75  68  78 W7        29.78
LORAIN-ELYRIA  FAIR      71  66  84 CALM      29.79R HAZE
ASHTABULA      CLOUDY    73  73 100 W5        29.79R
AKRON-CANTON   CLOUDY    72  69  90 SW5       29.80S
WOOSTER        FAIR      70  69  97 CALM      29.81S
MANSFIELD      FAIR      70  70 100 W5        29.82S
YOUNGSTOWN     CLOUDY    72  70  93 SW6       29.79S FOG
$$

OHZ042-051>053-060>062-070>072-077>081-231200-
  SOUTHWEST OHIO

CITY           SKY/WX    TMP DP  RH WIND       PRES   REMARKS
CINC-COVINGTON CLOUDY    71  71 100 SW7       29.84S
CINC-LUNKEN    NOT AVBL
HAMILTON       MOCLDY    73  73 100 SW3       29.83R
DAYTON         CLOUDY    74  72  93 SW7       29.83S
WRIGHT-PAT AFB CLOUDY    73  73 100 SW8       29.82R
DAYTON GENERAL CLOUDY    72  71  97 S6        29.82S
WILMINGTON     CLOUDY    71  71 100 SW10      29.84R
$$

OHZ036-037-039>041-045>050-054>059-063>069-073>076-082>088-231200-
  CENTRAL AND SOUTHEAST OHIO

CITY           SKY/WX    TMP DP  RH WIND       PRES   REMARKS
COLUMBUS       CLOUDY    75  74  96 S5        29.82R
OSU AIRPORT    CLOUDY    74  74 100 W5        29.82R
BOLTON FIELD   NOT AVBL
RICKENBACK AFB CLOUDY    72  72 100 S9        29.83R
NEWARK         CLOUDY    74  72  93 CALM      29.81R FOG
MARION         FAIR      71  68  90 NW3       29.81R
LANCASTER      CLOUDY    70  70 100 SW12      29.84R
ZANESVILLE     CLOUDY    73  71  93 S5        29.82R FOG
NEW PHILLY     FAIR      71  71 100 SE3       29.81R FOG
$$




USA.gov is the U.S. government's official web portal to all federal, state and local government web resources and services.